Regional Weather Roundup
Issued by NWS

Home | Current Version | Previous Version | Graphics & Text | Print | Product List | Glossary On
Versions: 1 2 3 4 5 6 7 8 9 10 11 12 13 14 15 16 17 18 19 20 21 22 23 24 25 26 27 28 29 30 31 32 33 34 35 36 37 38 39 40 41 42 43 44 45 46 47 48 49 50
000
ASUS43 KLMK 270902
RWRKY
KENTUCKY REGIONAL WEATHER ROUNDUP
NATIONAL WEATHER SERVICE LOUISVILLE KY
400 AM EST THU NOV 27 2014

NOTE "FAIR" INDICATES FEW OR NO CLOUDS BELOW 12,000 FEET
WITH NO SIGNIFICANT WEATHER AND/OR OBSTRUCTIONS TO VISIBILITY.

KYZ001>023-026-027-061>063-070>075-271000-
WESTERN AND SOUTH CENTRAL KENTUCKY

CITY           SKY/WX    TMP DP  RH WIND       PRES   REMARKS
PADUCAH        CLOUDY    37  32  82 NW12G20   30.23R WCI  29
HENDERSON      CLOUDY    34  28  80 NW9       30.21R WCI  26
OWENSBORO      FLURRIES  33  32  96 MISG      30.19R
HOPKINSVILLE   CLOUDY    36  35  96 NW10G20   30.19R WCI  28
BOWLING GREEN  LGT SNOW  35  32  88 NW9       30.15R FOG     WCI  28
GLASGOW        NOT AVBL
$$

KYZ024-025-028>034-038-045-046-053-271000-
NORTH CENTRAL KENTUCKY

CITY           SKY/WX    TMP DP  RH WIND       PRES   REMARKS
LOUISVILLE/SDF LGT SNOW  32  30  92 N9        30.14R FOG     WCI  24
LOUISVILLE/LOU LGT SNOW  32  30  92 NW8       30.14R FOG     WCI  25
FORT KNOX      LGT SNOW  32  32 100 NW8       30.12R FOG     WCI  25
$$

KYZ035>037-039>044-047>052-055>060-089>105-271000-
NORTHEAST KENTUCKY

CITY           SKY/WX    TMP DP  RH WIND       PRES   REMARKS
LEXINGTON      CLOUDY    32  28  85 N8        30.08R WCI  25
COVINGTON      CLOUDY    28  21  75 NW8       30.10R WCI  20
FRANKFORT      LGT SNOW  33  27  78 NW7       30.09R WCI  27
$$

KYZ054-064>069-076>088-106>120-271000-
SOUTHEAST KENTUCKY

CITY           SKY/WX    TMP DP  RH WIND       PRES   REMARKS
JACKSON        CLOUDY    34  27  75 CALM      30.01R
LONDON         LGT SNOW  34  32  92 NW3       30.03R FOG
SOMERSET       NOT AVBL
MIDDLESBORO    NOT AVBL
MONTICELLO     LGT SNOW  36  34  92 W12       30.09R FOG     WCI  28
$$




USA.gov is the U.S. government's official web portal to all federal, state and local government web resources and services.